DAL1296 KSAN-KSLC

Flight info

Callsign DAL1296
Flight time 1h 17m
Altitude 37000
Route ZZOOO4 MTBAL DCT CADEZ DCT HAKMN/N0424F370 Q73 LAKRR DCT MLF QWENN6
Aircraft A32N/M-VGDW/C

Departure

Time 2026-05-04 20:27
Airport San Diego International Airport (KSAN)

Arrival

Time 2026-05-04 21:45
Airport Salt Lake City International Airport (KSLC)
Time Latitude Longitude Altitude Speed Heading
2026-05-04 20:03 32.73343 -117.20462 24 ft 0 kts 102°
2026-05-04 20:14 32.73343 -117.20463 33 ft 2 kts 102°
2026-05-04 20:14 32.73343 -117.20492 24 ft 4 kts 89°
2026-05-04 20:15 32.73344 -117.20524 24 ft 4 kts 94°
2026-05-04 20:15 32.73345 -117.20556 23 ft 4 kts 88°
2026-05-04 20:15 32.73342 -117.20588 23 ft 4 kts 75°
2026-05-04 20:15 32.73341 -117.20593 23 ft 0 kts 72°
2026-05-04 20:20 32.73342 -117.20592 23 ft 1 kts 72°
2026-05-04 20:20 32.73348 -117.20579 26 ft 4 kts 53°
2026-05-04 20:20 32.73389 -117.20561 23 ft 10 kts
2026-05-04 20:20 32.73478 -117.20551 20 ft 15 kts 24°
2026-05-04 20:21 32.73557 -117.20452 18 ft 18 kts 50°
2026-05-04 20:21 32.73584 -117.20320 22 ft 17 kts 108°
2026-05-04 20:21 32.73514 -117.20044 26 ft 19 kts 107°
2026-05-04 20:22 32.73477 -117.19887 27 ft 20 kts 105°
2026-05-04 20:22 32.73437 -117.19718 28 ft 22 kts 105°
2026-05-04 20:22 32.73392 -117.19536 27 ft 24 kts 107°
2026-05-04 20:22 32.73345 -117.19342 25 ft 26 kts 105°
2026-05-04 20:23 32.73293 -117.19126 27 ft 27 kts 107°
2026-05-04 20:23 32.73240 -117.18908 28 ft 28 kts 106°
2026-05-04 20:23 32.73185 -117.18687 27 ft 28 kts 106°
2026-05-04 20:23 32.73130 -117.18452 28 ft 31 kts 105°
2026-05-04 20:24 32.73071 -117.18211 26 ft 26 kts 104°
2026-05-04 20:24 32.73025 -117.18020 22 ft 24 kts 106°
2026-05-04 20:24 32.72990 -117.17877 20 ft 10 kts 107°
2026-05-04 20:24 32.72971 -117.17801 21 ft 5 kts 107°
2026-05-04 20:25 32.72958 -117.17750 19 ft 8 kts 107°
2026-05-04 20:25 32.72955 -117.17732 22 ft 0 kts 100°
2026-05-04 20:25 32.72955 -117.17731 22 ft 0 kts 100°
2026-05-04 20:25 32.72954 -117.17725 21 ft 1 kts 100°
2026-05-04 20:26 32.72953 -117.17690 21 ft 8 kts 84°
2026-05-04 20:26 32.72970 -117.17627 25 ft 8 kts 56°
2026-05-04 20:26 32.73021 -117.17618 26 ft 9 kts 322°
2026-05-04 20:26 32.73062 -117.17765 26 ft 46 kts 285°
2026-05-04 20:27 32.73223 -117.18436 26 ft 119 kts 286°
2026-05-04 20:27 32.73504 -117.19594 122 ft 165 kts 286°
2026-05-04 20:27 32.73842 -117.20918 745 ft 175 kts 286°
2026-05-04 20:27 32.74200 -117.22349 1438 ft 185 kts 286°
2026-05-04 20:28 32.74569 -117.23837 2184 ft 188 kts 285°
2026-05-04 20:28 32.74938 -117.25344 3003 ft 192 kts 285°
2026-05-04 20:28 32.75343 -117.26883 3874 ft 197 kts 288°
2026-05-04 20:28 32.75794 -117.28428 4727 ft 199 kts 288°
2026-05-04 20:29 32.76148 -117.30043 5414 ft 209 kts 283°
2026-05-04 20:29 32.76504 -117.31818 5885 ft 231 kts 284°
2026-05-04 20:29 32.76607 -117.33758 6679 ft 239 kts 263°
2026-05-04 20:29 32.76067 -117.35618 7595 ft 241 kts 239°
2026-05-04 20:30 32.74897 -117.37018 8447 ft 246 kts 213°
2026-05-04 20:30 32.73258 -117.37641 9264 ft 255 kts 187°
2026-05-04 20:30 32.71485 -117.37254 10058 ft 268 kts 159°
2026-05-04 20:30 32.69983 -117.35859 10823 ft 283 kts 134°
2026-05-04 20:31 32.68775 -117.33974 11580 ft 289 kts 130°
2026-05-04 20:31 32.67619 -117.31995 12297 ft 293 kts 130°
2026-05-04 20:31 32.66449 -117.29990 13011 ft 297 kts 131°
2026-05-04 20:31 32.65247 -117.27980 13785 ft 301 kts 132°
2026-05-04 20:32 32.64024 -117.25936 14470 ft 308 kts 128°
2026-05-04 20:32 32.63136 -117.23571 15107 ft 321 kts 110°
2026-05-04 20:32 32.62793 -117.20930 15541 ft 336 kts 100°
2026-05-04 20:32 32.62551 -117.18093 15744 ft 355 kts 100°
2026-05-04 20:33 32.62292 -117.15096 15905 ft 374 kts 100°
2026-05-04 20:33 32.62152 -117.11936 16092 ft 396 kts 90°
2026-05-04 20:33 32.62352 -117.09747 16213 ft 410 kts 81°
2026-05-04 20:33 32.63183 -117.06434 16503 ft 425 kts 69°
2026-05-04 20:34 32.64283 -117.03152 17048 ft 429 kts 69°
2026-05-04 20:34 32.65377 -116.99834 17605 ft 434 kts 69°
2026-05-04 20:34 32.66283 -116.96394 18141 ft 438 kts 79°
2026-05-04 20:34 32.66732 -116.92815 18644 ft 439 kts 90°
2026-05-04 20:35 32.66822 -116.89189 19139 ft 442 kts 92°
2026-05-04 20:35 32.66899 -116.85528 19648 ft 445 kts 92°
2026-05-04 20:35 32.67019 -116.81850 20178 ft 450 kts 88°
2026-05-04 20:35 32.67726 -116.78191 20598 ft 462 kts 71°
2026-05-04 20:36 32.69219 -116.74788 21052 ft 468 kts 54°
2026-05-04 20:36 32.71353 -116.71930 21450 ft 471 kts 38°
2026-05-04 20:36 32.74043 -116.69743 21858 ft 468 kts 21°
2026-05-04 20:36 32.77071 -116.68412 22321 ft 460 kts
2026-05-04 20:37 32.80209 -116.67654 22775 ft 462 kts
2026-05-04 20:37 32.83376 -116.66798 23194 ft 471 kts
2026-05-04 20:37 32.86542 -116.65656 23633 ft 479 kts 12°
2026-05-04 20:37 32.89697 -116.64292 23997 ft 485 kts 15°
2026-05-04 20:38 32.92852 -116.62790 24361 ft 491 kts 17°
2026-05-04 20:38 32.96026 -116.61225 24712 ft 496 kts 17°
2026-05-04 20:38 32.99233 -116.59629 25036 ft 501 kts 17°
2026-05-04 20:38 33.02424 -116.58040 25355 ft 506 kts 17°
2026-05-04 20:39 33.05667 -116.56362 25658 ft 509 kts 18°
2026-05-04 20:39 33.08914 -116.54661 26130 ft 509 kts 18°
2026-05-04 20:39 33.12166 -116.52948 26413 ft 514 kts 19°
2026-05-04 20:39 33.15454 -116.51212 26717 ft 518 kts 19°
2026-05-04 20:40 33.18758 -116.49469 27027 ft 521 kts 19°
2026-05-04 20:40 33.22093 -116.47714 27294 ft 525 kts 18°
2026-05-04 20:40 33.25455 -116.45943 27535 ft 528 kts 19°
2026-05-04 20:40 33.28780 -116.44195 28048 ft 529 kts 18°
2026-05-04 20:41 33.32161 -116.42433 28336 ft 533 kts 18°
2026-05-04 20:41 33.35595 -116.40624 28445 ft 541 kts 20°
2026-05-04 20:41 33.38898 -116.38390 28665 ft 551 kts 32°
2026-05-04 20:41 33.41871 -116.35461 28876 ft 556 kts 44°
2026-05-04 20:42 33.44400 -116.31942 29123 ft 559 kts 56°
2026-05-04 20:42 33.46591 -116.28079 29386 ft 561 kts 59°
2026-05-04 20:42 33.48734 -116.24133 29503 ft 566 kts 59°
2026-05-04 20:42 33.50891 -116.20262 29882 ft 566 kts 58°
2026-05-04 20:43 33.53133 -116.16358 30036 ft 570 kts 57°
2026-05-04 20:43 33.55427 -116.12461 30265 ft 572 kts 56°
2026-05-04 20:43 33.57749 -116.08558 30464 ft 575 kts 56°
2026-05-04 20:43 33.60154 -116.04706 30668 ft 579 kts 50°
2026-05-04 20:44 33.62952 -116.01215 30898 ft 582 kts 42°
2026-05-04 20:44 33.65903 -115.97846 31031 ft 587 kts 43°
2026-05-04 20:44 33.68855 -115.94457 31274 ft 587 kts 43°
2026-05-04 20:44 33.71794 -115.91070 31704 ft 585 kts 43°
2026-05-04 20:45 33.74734 -115.87679 31912 ft 586 kts 43°
2026-05-04 20:45 33.77644 -115.84322 32160 ft 587 kts 43°
2026-05-04 20:45 33.80589 -115.80921 32412 ft 587 kts 42°
2026-05-04 20:45 33.83538 -115.77511 32655 ft 588 kts 42°
2026-05-04 20:46 33.86487 -115.74097 32842 ft 589 kts 42°
2026-05-04 20:46 33.89451 -115.70665 33061 ft 590 kts 42°
2026-05-04 20:46 33.92409 -115.67234 33306 ft 590 kts 42°
2026-05-04 20:46 33.95364 -115.63803 33508 ft 591 kts 42°
2026-05-04 20:47 33.98329 -115.60352 33819 ft 590 kts 41°
2026-05-04 20:47 34.01256 -115.56946 34048 ft 590 kts 41°
2026-05-04 20:47 34.04196 -115.53522 34294 ft 589 kts 41°
2026-05-04 20:47 34.07162 -115.50066 34575 ft 587 kts 41°
2026-05-04 20:48 34.10072 -115.46670 34781 ft 586 kts 41°
2026-05-04 20:48 34.13017 -115.43230 34987 ft 586 kts 41°
2026-05-04 20:48 34.15960 -115.39791 35179 ft 586 kts 41°
2026-05-04 20:48 34.19001 -115.36598 35369 ft 580 kts 31°
2026-05-04 20:49 34.22366 -115.34075 35566 ft 568 kts 19°
2026-05-04 20:49 34.25973 -115.32292 35750 ft 552 kts
2026-05-04 20:49 34.29694 -115.31297 35874 ft 532 kts 354°
2026-05-04 20:49 34.33329 -115.30900 35869 ft 525 kts 351°
2026-05-04 20:50 34.40622 -115.30112 35872 ft 530 kts 355°
2026-05-04 20:50 34.47942 -115.28846 35872 ft 534 kts 357°
2026-05-04 20:51 34.55303 -115.27378 35869 ft 533 kts 358°
2026-05-04 20:51 34.62592 -115.25905 35858 ft 534 kts 358°
2026-05-04 20:52 34.69956 -115.24421 35858 ft 534 kts 358°
2026-05-04 20:52 34.77246 -115.22952 35868 ft 534 kts 358°
2026-05-04 20:53 34.84573 -115.21473 35867 ft 534 kts 358°
2026-05-04 20:53 34.91898 -115.19991 35868 ft 534 kts 358°
2026-05-04 20:54 34.99252 -115.18500 35896 ft 534 kts 358°
2026-05-04 20:54 35.06554 -115.17029 35853 ft 531 kts 357°
2026-05-04 20:55 35.13895 -115.15577 35871 ft 536 kts 359°
2026-05-04 20:55 35.21246 -115.14027 35868 ft 534 kts 358°
2026-05-04 20:56 35.28558 -115.12526 35869 ft 535 kts 358°
2026-05-04 20:56 35.35909 -115.11025 35870 ft 535 kts 358°
2026-05-04 20:57 35.43262 -115.09518 35864 ft 534 kts 358°
2026-05-04 20:57 35.50439 -115.06952 35862 ft 558 kts 19°
2026-05-04 20:58 35.53828 -115.04478 35852 ft 567 kts 32°
2026-05-04 20:58 35.56845 -115.01298 35858 ft 574 kts 44°
2026-05-04 20:58 35.61899 -114.93626 35860 ft 580 kts 51°
2026-05-04 20:59 35.66961 -114.86002 35859 ft 578 kts 47°
2026-05-04 20:59 35.72295 -114.78564 35854 ft 579 kts 46°
2026-05-04 21:00 35.77687 -114.71185 35818 ft 578 kts 46°
2026-05-04 21:00 35.83072 -114.63804 35762 ft 579 kts 46°
2026-05-04 21:01 35.88426 -114.56440 36111 ft 578 kts 46°
2026-05-04 21:01 35.91105 -114.52744 36275 ft 577 kts 46°
2026-05-04 21:01 35.93777 -114.49055 36425 ft 577 kts 46°
2026-05-04 21:02 35.96446 -114.45368 36611 ft 575 kts 46°
2026-05-04 21:02 35.99111 -114.41681 36745 ft 574 kts 46°
2026-05-04 21:02 36.04430 -114.34311 36757 ft 574 kts 45°
2026-05-04 21:03 36.07241 -114.30921 36756 ft 569 kts 34°
2026-05-04 21:03 36.10406 -114.28041 36783 ft 561 kts 25°
2026-05-04 21:03 36.13795 -114.25754 36758 ft 550 kts 15°
2026-05-04 21:03 36.17293 -114.23859 36758 ft 548 kts 14°
2026-05-04 21:04 36.24283 -114.20064 36754 ft 548 kts 14°
2026-05-04 21:04 36.31229 -114.16273 36751 ft 548 kts 14°
2026-05-04 21:05 36.38228 -114.12451 36765 ft 551 kts 15°
2026-05-04 21:05 36.45253 -114.08620 36761 ft 550 kts 15°
2026-05-04 21:06 36.52258 -114.04779 36767 ft 546 kts 14°
2026-05-04 21:06 36.59161 -114.00991 36770 ft 546 kts 14°
2026-05-04 21:07 36.66157 -113.97161 36760 ft 551 kts 15°
2026-05-04 21:07 36.73171 -113.93305 36782 ft 552 kts 15°
2026-05-04 21:08 36.80192 -113.89414 36773 ft 551 kts 15°
2026-05-04 21:08 36.87216 -113.85539 36811 ft 551 kts 15°
2026-05-04 21:09 36.94251 -113.81636 36801 ft 554 kts 15°
2026-05-04 21:09 37.01266 -113.77739 36821 ft 555 kts 15°
2026-05-04 21:10 37.08320 -113.73813 36821 ft 552 kts 14°
2026-05-04 21:10 37.15329 -113.69906 36822 ft 549 kts 14°
2026-05-04 21:11 37.22314 -113.65994 36804 ft 548 kts 14°
2026-05-04 21:11 37.29247 -113.62107 36773 ft 550 kts 14°
2026-05-04 21:12 37.36254 -113.58195 36775 ft 550 kts 15°
2026-05-04 21:12 37.43224 -113.54272 36779 ft 547 kts 15°
2026-05-04 21:13 37.50176 -113.50361 36777 ft 547 kts 15°
2026-05-04 21:13 37.57128 -113.46436 36772 ft 547 kts 15°
2026-05-04 21:14 37.64102 -113.42496 36816 ft 546 kts 15°
2026-05-04 21:14 37.70936 -113.38617 36848 ft 541 kts 15°
2026-05-04 21:15 37.77854 -113.34699 36856 ft 544 kts 15°
2026-05-04 21:15 37.84758 -113.30770 36840 ft 543 kts 15°
2026-05-04 21:16 37.91624 -113.26855 36816 ft 536 kts 16°
2026-05-04 21:16 37.98424 -113.22970 36733 ft 537 kts 16°
2026-05-04 21:17 38.05198 -113.19095 36723 ft 537 kts 16°
2026-05-04 21:17 38.12007 -113.15176 36773 ft 536 kts 16°
2026-05-04 21:18 38.18752 -113.11304 36790 ft 529 kts 17°
2026-05-04 21:18 38.25495 -113.07429 36831 ft 533 kts 16°
2026-05-04 21:19 38.32241 -113.03538 36877 ft 532 kts 16°
2026-05-04 21:19 38.38997 -112.99682 36887 ft 530 kts 14°
2026-05-04 21:20 38.45769 -112.96110 36889 ft 530 kts 14°
2026-05-04 21:20 38.52588 -112.92517 36870 ft 530 kts 14°
2026-05-04 21:21 38.59397 -112.88886 36825 ft 530 kts 14°
2026-05-04 21:21 38.65000 -112.85881 36784 ft 518 kts 15°
2026-05-04 21:22 38.71654 -112.82311 36720 ft 521 kts 15°
2026-05-04 21:22 38.78351 -112.78714 36719 ft 522 kts 15°
2026-05-04 21:23 38.81702 -112.76910 36589 ft 522 kts 15°
2026-05-04 21:23 38.85062 -112.75099 36194 ft 524 kts 15°
2026-05-04 21:23 38.88405 -112.73295 35861 ft 517 kts 16°
2026-05-04 21:23 38.91722 -112.71501 35233 ft 517 kts 16°
2026-05-04 21:24 38.95044 -112.69705 34482 ft 519 kts 16°
2026-05-04 21:24 38.98338 -112.67925 33706 ft 521 kts 16°
2026-05-04 21:24 39.01689 -112.66111 32837 ft 522 kts 16°
2026-05-04 21:24 39.05039 -112.64295 32063 ft 520 kts 17°
2026-05-04 21:25 39.08375 -112.62484 31294 ft 518 kts 17°
2026-05-04 21:25 39.11693 -112.60683 30616 ft 515 kts 18°
2026-05-04 21:25 39.14989 -112.58891 29843 ft 514 kts 18°
2026-05-04 21:25 39.18280 -112.57101 28938 ft 512 kts 18°
2026-05-04 21:26 39.21510 -112.55342 28257 ft 507 kts 18°
2026-05-04 21:26 39.24744 -112.53578 27633 ft 501 kts 19°
2026-05-04 21:26 39.27949 -112.51827 27011 ft 495 kts 19°
2026-05-04 21:26 39.31107 -112.50099 26394 ft 490 kts 19°
2026-05-04 21:27 39.34218 -112.48344 25881 ft 484 kts 21°
2026-05-04 21:27 39.37275 -112.46583 25339 ft 477 kts 21°
2026-05-04 21:27 39.40251 -112.44861 24757 ft 473 kts 21°
2026-05-04 21:27 39.43238 -112.43137 24227 ft 467 kts 21°
2026-05-04 21:28 39.46188 -112.41436 23671 ft 462 kts 21°
2026-05-04 21:28 39.49111 -112.39752 23096 ft 457 kts 21°
2026-05-04 21:28 39.52002 -112.38086 22453 ft 452 kts 22°
2026-05-04 21:28 39.54872 -112.36432 21819 ft 448 kts 22°
2026-05-04 21:29 39.57711 -112.34796 21277 ft 442 kts 23°
2026-05-04 21:29 39.60493 -112.33192 20768 ft 435 kts 23°
2026-05-04 21:29 39.63250 -112.31600 20111 ft 432 kts 23°
2026-05-04 21:29 39.65948 -112.30041 19513 ft 429 kts 23°
2026-05-04 21:30 39.68653 -112.28476 18678 ft 423 kts 24°
2026-05-04 21:30 39.71330 -112.26926 17907 ft 417 kts 24°
2026-05-04 21:30 39.73940 -112.25413 17356 ft 403 kts 24°
2026-05-04 21:30 39.76463 -112.23947 16829 ft 391 kts 24°
2026-05-04 21:31 39.81282 -112.21145 15818 ft 369 kts 24°
2026-05-04 21:31 39.83598 -112.19797 15333 ft 360 kts 24°
2026-05-04 21:31 39.85854 -112.18483 14850 ft 352 kts 24°
2026-05-04 21:32 39.88137 -112.17152 14393 ft 370 kts 24°
2026-05-04 21:32 39.90510 -112.15768 14235 ft 373 kts 24°
2026-05-04 21:32 39.92856 -112.14399 14120 ft 360 kts 24°
2026-05-04 21:32 39.95065 -112.13110 13964 ft 344 kts 24°
2026-05-04 21:33 39.97197 -112.11900 13877 ft 324 kts 20°
2026-05-04 21:33 39.99297 -112.11039 13744 ft 311 kts 17°
2026-05-04 21:33 40.01417 -112.10201 13595 ft 325 kts 17°
2026-05-04 21:33 40.03588 -112.09337 13430 ft 326 kts 17°
2026-05-04 21:34 40.05742 -112.08482 13275 ft 319 kts 18°
2026-05-04 21:34 40.07832 -112.07647 13151 ft 311 kts 18°
2026-05-04 21:34 40.09909 -112.06816 13019 ft 312 kts 18°
2026-05-04 21:34 40.11978 -112.05989 12871 ft 315 kts 18°
2026-05-04 21:35 40.14072 -112.05152 12723 ft 314 kts 17°
2026-05-04 21:35 40.16157 -112.04318 12573 ft 313 kts 17°
2026-05-04 21:35 40.18233 -112.03486 12439 ft 312 kts 17°
2026-05-04 21:35 40.20308 -112.02654 12296 ft 311 kts 17°
2026-05-04 21:36 40.22375 -112.01824 12151 ft 310 kts 17°
2026-05-04 21:36 40.24432 -112.00999 12006 ft 308 kts 17°
2026-05-04 21:36 40.26462 -112.00184 11860 ft 309 kts 17°
2026-05-04 21:36 40.28509 -111.99361 11723 ft 306 kts 17°
2026-05-04 21:37 40.30545 -111.98543 11567 ft 305 kts 17°
2026-05-04 21:37 40.32574 -111.97726 11423 ft 306 kts 17°
2026-05-04 21:37 40.34608 -111.96907 11270 ft 305 kts 17°
2026-05-04 21:37 40.36631 -111.96092 11170 ft 299 kts 17°
2026-05-04 21:38 40.38574 -111.95310 10989 ft 286 kts 16°
2026-05-04 21:38 40.40417 -111.94582 10964 ft 269 kts 15°
2026-05-04 21:38 40.42216 -111.93919 10972 ft 274 kts 13°
2026-05-04 21:38 40.44094 -111.93534 10979 ft 273 kts
2026-05-04 21:39 40.45998 -111.93639 10898 ft 272 kts 352°
2026-05-04 21:39 40.47865 -111.93917 10655 ft 268 kts 353°
2026-05-04 21:39 40.49703 -111.94128 10402 ft 257 kts 353°
2026-05-04 21:39 40.51428 -111.94324 10263 ft 240 kts 352°
2026-05-04 21:40 40.53038 -111.94507 10131 ft 223 kts 352°
2026-05-04 21:40 40.54548 -111.94681 9860 ft 215 kts 352°
2026-05-04 21:40 40.55999 -111.94847 9583 ft 207 kts 352°
2026-05-04 21:40 40.57443 -111.95014 9134 ft 209 kts 353°
2026-05-04 21:41 40.58895 -111.95180 8688 ft 210 kts 351°
2026-05-04 21:41 40.60353 -111.95348 8231 ft 211 kts 351°
2026-05-04 21:41 40.61825 -111.95516 7785 ft 211 kts 352°
2026-05-04 21:41 40.63287 -111.95683 7340 ft 210 kts 352°
2026-05-04 21:42 40.64735 -111.95851 6980 ft 207 kts 353°
2026-05-04 21:42 40.66135 -111.96010 6637 ft 194 kts 353°
2026-05-04 21:42 40.67419 -111.96159 6349 ft 178 kts 353°
2026-05-04 21:42 40.68632 -111.96297 6098 ft 171 kts 352°
2026-05-04 21:43 40.69791 -111.96430 5840 ft 168 kts 351°
2026-05-04 21:43 40.70943 -111.96563 5585 ft 163 kts 352°
2026-05-04 21:43 40.72056 -111.96689 5342 ft 160 kts 350°
2026-05-04 21:43 40.73153 -111.96820 5131 ft 156 kts 349°
2026-05-04 21:44 40.74221 -111.96932 4895 ft 155 kts 350°
2026-05-04 21:44 40.75315 -111.97055 4708 ft 157 kts 348°
2026-05-04 21:44 40.76395 -111.97184 4479 ft 154 kts 350°
2026-05-04 21:44 40.77413 -111.97302 4282 ft 143 kts 349°
2026-05-04 21:45 40.78346 -111.97426 4228 ft 122 kts 355°
2026-05-04 21:45 40.78897 -111.97490 4232 ft 48 kts 356°
2026-05-04 21:45 40.79071 -111.97517 4231 ft 13 kts 347°
2026-05-04 21:45 40.79165 -111.97565 4231 ft 16 kts 329°
2026-05-04 21:46 40.79262 -111.97662 4229 ft 18 kts 307°
2026-05-04 21:46 40.79275 -111.97816 4228 ft 17 kts 242°
2026-05-04 21:46 40.79177 -111.97836 4231 ft 15 kts 171°
2026-05-04 21:46 40.79075 -111.97816 4232 ft 16 kts 171°
2026-05-04 21:47 40.78960 -111.97797 4234 ft 17 kts 173°
2026-05-04 21:47 40.78834 -111.97783 4233 ft 19 kts 178°
2026-05-04 21:47 40.78699 -111.97770 4233 ft 20 kts 171°
2026-05-04 21:47 40.78556 -111.97750 4230 ft 22 kts 175°
2026-05-04 21:48 40.78458 -111.97740 4226 ft 0 kts 176°
2026-05-04 21:48 40.78456 -111.97745 4226 ft 0 kts 220°
2026-05-04 21:48 40.78454 -111.97759 4226 ft 4 kts 257°
2026-05-04 21:48 40.78450 -111.97804 4227 ft 5 kts 266°
2026-05-04 21:49 40.78448 -111.97848 4228 ft 4 kts 267°
2026-05-04 21:49 40.78448 -111.97880 4229 ft 2 kts 269°
2026-05-04 21:49 40.78448 -111.97899 4229 ft 4 kts 269°
2026-05-04 21:49 40.78447 -111.97962 4230 ft 9 kts 270°
2026-05-04 21:50 40.78456 -111.98021 4232 ft 5 kts 309°
2026-05-04 21:50 40.78482 -111.98035 4231 ft 3 kts 348°
2026-05-04 21:50 40.78502 -111.98038 4231 ft 4 kts 354°
2026-05-04 21:50 40.78531 -111.98041 4232 ft 4 kts 356°
2026-05-04 21:51 40.78546 -111.98042 4232 ft 0 kts 356°